SCP
0 -0 0 0 0 0 0 0 0 -0 0 0 0 0 0 0 0 0 -0 0 0 0 0 0 0 0 0 0 0 0 0 0 0 -0 -0 -0 -0 -0 -0 -0 -0 -0 -0 -0 -0 -0 -0 -0 -0
0 0 0 0 0 0 0 -0 -0 0 0 0 0 0 0 0 0 -0 0 0 0 0 0 0 0 0 0 0 0 0 0 0 -0 -0 -0 -0 -0 -0 -0 -0 -0 -0 -0 -0 -0 -0 -0 -0 -0
0 0 0 0 0 0 0 0 -0 0 0 0 0 0 0 0 0 -0 0 0 0 0 0 0 0 0 0 0 0 0 0 -0 -0 -0 -0 -0 -0 -0 -0 -0 -0 -0 -0 -0 0 0 0 -0 -0
0 0 0 0 0 0 0 0 0 0 0 0 0 0 0 0 0 0 0 0 0 0 0 0 0 0 0 0 0 0 0 -0 -0 -0 -0 -0 -0 -0 -0 -0 -0 -0 0 0 0 0 0 0 0
0 0 0 0 0 0 0 0 0 0 0 0 0 0 0 0 0 0 0 0 0 0 0 0 0 0 0 0 0 0 0 -0 -0 -0 -0 -0 -0 -0 -0 -0 -0 -0 0 0 0 0 0 0 0
0 0 0 0 -0 0 0 0 0 0 0 0 0 0 0 0 0 0 0 0 0 0 0 0 0 0 0 0 0 0 0 0 0 0 -0 -0 0 0 0 0 0 0 0 0 0 0 0 0 0
0 0 0 0 0 0 0 0 0 0 0 0 0 0 0 0 0 0 0 0 0 0 0 0 0 0 0 0 0 0 0 0 0 0 0 0 0 0 0 0 0 0 0 0 0 0 0 0 0
0 0 0 0 0 0 0 0 0 0 0 0 0 0 0 0 0 0 0 0 0 0 0 0 0 0 0 0 0 0 0 0 0 0 0 0 0 0 0 0 0 0 0 0 0 0 0 0 0
0 0 0 0 0 0 0 0 0 0 0 0 0 0 0 0 0 0 0 0 0 0 0 0 0 0 0 0 0 0 0 0 0 0 0 0 0 0 0 0 0 0 0 0 0 0 0 0 0
0 0 0 0 0 0 0 0 0 0 0 0 0 0 0 0 0 0 0 0 0 0 0 0 0 0 0 0 0 0 0 0 0 0 0 0 0 0 0 0 0 0 0 0 0 0 0 0 0
0 0 0 0 0 0 0 0 0 0 0 0 0 0 0 0 0 0 0 0 0 0 0 0 0 0 0 0 0 0 0 0 0 0 0 0 0 0 0 0 0 0 0 0 0 0 0 0 0
0 0 0 0 0 0 0 0 0 0 0 0 0 0 0 0 0 0 0 0 0 0 0 0 0 0 0 0 0 0 0 0 0 0 0 0 0 0 0 0 0 0 0 0 0 0 0 0 0
0 0 0 0 0 0 0 0 0 0 0 0 0 0 0 0 0 0 0 0 0 0 0 0 0 0 0 0 0 0 0 0 0 0 0 0 0 0 0 0 0 0 0 0 0 0 0 0 0
0 0 0 0 0 0 0 0 0 0 0 0 0 0 0 0 0 0 0 0 0 0 0 0 0 0 0 0 0 0 0 0 0 0 0 0 0 0 0 0 0 0 0 0 0 0 0 0 0
0 0 0 0 0 0 0 0 0 0 0 0 0 0 0 0 0 0 0 0 0 0 0 0 0 0 0 0 0 0 0 0 0 0 0 0 0 0 0 0 0 0 0 0 0 0 0 0 0
0 0 0 0 0 0 0 0 0 0 0 0 0 0 0 0 0 0 0 0 0 0 0 0 0 0 0 0 0 0 0 0 0 0 0 0 0 0 0 0 0 0 0 0 0 0 0 0 0
0 0 0 0 0 0 0 0 0 0 0 0 0 0 0 0 0 0 0 0 0 0 0 0 0 0 0 0 0 0 0 0 0 0 0 0 0 0 0 0 0 0 0 0 0 0 0 0 0
0 0 0 0 0 0 0 0 0 0 0 0 0 0 0 0 0 0 0 0 0 0 0 0 0 0 0 0 0 0 0 0 0 0 0 0 0 0 0 0 0 0 0 0 0 0 0 0 0
0 0 0 0 0 0 0 0 0 0 0 0 0 0 0 0 0 0 0 0 0 0 0 0 0 0 0 0 0 0 0 0 0 0 0 0 0 0 0 0 0 0 0 0 0 0 0 0 0
0 0 0 0 0 0 0 0 0 0 0 0 0 0 0 0 0 0 0 0 0 0 0 0 0 0 0 0 0 0 0 0 0 0 0 0 0 0 0 0 0 0 0 0 0 0 0 0 0
0 0 0 0 0 0 0 0 0 0 0 0 0 0 0 0 0 0 0 0 0 0 0 0 0 0 0 0 0 0 0 0 0 0 0 0 0 0 0 0 0 0 0 0 0 0 0 0 0
0 0 0 0 0 0 0 0 0 0 0 0 0 0 0 0 0 0 0 0 0 0 0 0 0 0 0 0 0 0 0 0 0 0 0 0 0 0 0 0 0 0 0 0 0 0 0 0 0
0 0 0 0 0 0 0 0 0 0 0 0 0 0 0 0 0 0 0 0 0 0 0 0 0 0 0 0 0 0 0 0 0 0 0 0 0 0 0 0 0 0 0 0 0 0 0 0 0
-0 -0 0 0 0 0 0 0 0 0 0 0 0 0 0 0 0 0 0 0 0 0 0 0 0 0 0 0 0 0 0 0 0 0 0 0 0 0 0 0 0 0 0 0 0 0 0 0 0
-0 -0 0 0 0 0 0 0 0 0 0 0 0 0 0 0 0 0 0 0 0 0 0 0 0 0 0 0 0 0 0 0 0 0 0 0 0 0 0 0 0 0 0 0 0 0 0 0 0
-0 -0 -0 0 0 0 0 0 0 0 0 0 0 0 0 0 0 0 0 0 0 0 0 0 0 0 0 0 0 0 0 0 0 0 0 0 0 0 0 0 0 0 0 0 0 0 0 0 0
0 0 0 0 0 0 0 0 0 0 0 0 0 0 0 0 0 0 0 0 0 0 0 0 0 0 0 0 0 0 0 0 0 0 0 0 0 0 0 0 0 0 0 0 0 0 0 0 0
0 0 0 0 -0 0 0 0 0 0 0 0 0 0 0 0 0 0 0 0 0 0 0 0 0 0 0 0 0 0 0 0 0 0 0 0 0 0 0 0 0 0 0 0 0 0 0 0 0
0 0 0 0 0 0 0 0 0 0 0 0 0 0 0 0 0 0 0 0 0 0 0 0 0 0 0 0 0 0 0 0 0 0 0 0 0 0 0 0 0 0 0 0 0 0 0 0 0
0 0 0 0 0 0 0 0 0 -0 -0 -0 0 0 0 0 0 0 0 0 0 0 0 0 0 0 0 0 0 0 0 0 0 0 0 0 0 0 0 0 0 0 0 0 0 0 0 0 0
Wind_Speed_500mb
18 8 10 3 5 8 18 30 20 16 6 12 7 12 4 38 4 10 39 24 37 40 42 43 42 35 37 35 32 27 23 18 13 6 3 5 10 13 15 15 16 16 16 17 17 17 21 21 21
13 4 10 9 8 17 17 24 24 13 16 16 21 4 3 11 16 34 38 38 37 41 46 44 44 37 35 34 28 24 20 15 10 6 6 10 14 15 17 16 15 15 15 14 16 16 15 16 17
12 10 14 8 14 24 3 19 17 32 28 27 12 2 4 12 18 41 28 50 42 40 47 45 44 36 32 31 27 23 17 12 9 8 8 10 13 14 17 14 13 12 13 13 13 13 12 12 12
8 11 15 10 25 31 27 6 36 21 17 25 22 16 15 20 19 25 50 52 42 38 42 42 44 35 33 30 25 20 14 10 9 8 7 8 13 12 5 6 11 10 9 9 9 9 9 9 8
15 16 14 17 29 36 5 13 33 17 19 20 14 17 15 16 24 27 59 51 47 42 40 42 42 38 31 27 25 18 12 9 8 7 7 8 7 13 15 6 11 8 5 4 4 5 7 8 10
18 18 13 23 31 33 12 20 13 24 31 30 14 21 14 22 26 46 54 47 44 45 40 45 42 38 32 26 23 18 12 10 9 8 7 8 7 5 5 2 3 3 2 3 4 7 10 12 14
24 14 22 29 30 9 8 20 17 20 22 24 6 6 21 29 35 49 48 44 44 41 39 50 46 41 35 27 19 16 14 11 12 11 9 8 9 7 7 6 6 6 7 9 10 11 13 14 15
27 9 26 30 26 13 12 21 20 20 18 15 19 4 15 48 45 50 46 42 43 40 34 44 45 41 36 30 24 20 15 11 13 14 12 9 9 8 9 9 8 7 9 12 13 14 15 16 18
20 10 25 33 33 15 41 15 11 6 24 11 13 12 18 32 59 50 49 45 44 43 32 37 37 39 35 32 27 24 18 12 13 14 13 11 8 8 6 8 7 8 10 13 14 14 16 18 19
13 11 22 27 28 15 26 25 27 9 18 15 21 21 29 31 60 57 56 53 48 48 46 32 41 33 30 30 26 25 20 16 13 15 14 10 8 4 16 10 9 12 14 15 16 16 18 19 18
7 10 17 42 9 20 22 23 37 18 16 26 40 35 32 38 49 57 50 50 47 46 48 49 47 47 37 28 28 26 26 18 16 14 14 13 10 23 26 23 19 17 17 16 18 17 18 20 22
10 20 41 23 11 9 11 20 20 29 9 26 39 44 37 43 53 57 48 46 45 43 47 46 43 47 44 32 31 28 28 19 20 21 20 21 23 25 23 19 18 19 19 19 19 20 21 23 25
9 12 42 22 7 1 7 12 12 20 14 22 25 47 35 40 51 54 45 42 43 42 40 41 39 41 44 43 30 26 19 24 24 23 25 25 24 22 21 20 20 21 21 21 21 21 21 24 28
27 14 38 39 15 11 9 9 7 15 27 25 30 34 32 35 51 54 47 44 46 43 42 36 38 38 39 43 38 29 31 31 28 29 28 27 27 25 23 23 24 24 23 22 22 23 24 27 27
2 15 14 28 16 9 15 8 12 20 30 27 28 34 31 32 42 58 55 46 44 44 41 42 39 37 36 35 36 35 33 34 34 30 30 31 30 28 29 28 28 26 23 23 24 25 29 29 31
6 4 14 24 19 7 10 11 23 24 25 29 29 34 35 36 37 40 54 50 46 45 46 43 41 41 39 36 36 37 38 36 34 33 31 32 34 32 31 32 31 27 26 27 28 27 27 28 30
10 11 11 8 9 7 14 6 13 29 25 27 33 35 31 34 37 32 43 46 42 42 42 43 44 44 41 40 37 35 36 35 33 32 33 32 32 31 33 34 31 29 30 32 30 28 27 28 32
9 19 8 6 3 8 13 9 10 13 12 18 27 32 33 33 38 35 35 40 41 38 36 37 39 39 38 37 37 36 36 37 36 37 37 34 34 34 36 35 35 35 36 36 31 31 28 31 32
17 17 12 1 10 9 13 12 12 23 14 7 15 20 29 28 33 33 38 39 40 38 41 36 35 34 36 39 40 39 41 39 40 40 38 37 38 37 38 37 37 37 39 33 33 27 29 33 35
16 18 5 5 5 5 13 10 9 6 12 16 15 11 22 19 24 33 34 36 42 42 40 40 38 37 38 39 40 40 39 41 42 38 37 37 38 37 39 38 38 37 34 37 38 33 35 36 34
10 9 14 8 5 1 8 9 11 13 14 19 14 12 5 23 32 30 37 42 42 45 43 45 42 42 41 40 39 37 37 40 37 34 35 36 35 37 39 40 40 39 37 40 39 34 36 34 35
5 10 22 26 14 3 4 3 8 3 10 3 13 16 15 11 12 13 21 26 32 39 46 44 47 49 47 50 49 49 43 41 34 25 26 28 33 35 38 42 44 43 41 43 40 36 35 30 34
5 12 13 22 14 10 2 6 7 8 11 15 21 18 8 1 12 21 21 19 29 36 34 34 36 39 39 41 42 42 42 40 39 38 38 41 38 30 27 28 32 37 39 38 36 35 30 29 31
15 10 9 8 9 6 8 1 8 6 3 5 10 12 12 12 7 18 33 30 38 39 34 32 33 31 29 29 29 30 31 32 34 35 37 37 36 35 37 35 36 38 38 37 35 32 27 31 30
8 9 3 2 3 4 8 7 10 11 10 7 11 13 13 14 9 8 6 19 32 35 35 32 30 27 27 28 29 29 30 32 32 33 32 32 29 29 31 28 29 30 30 32 31 31 30 24 26
11 9 5 3 3 5 6 8 2 12 18 19 21 22 13 8 9 8 5 3 6 12 16 19 22 23 24 23 21 19 18 16 14 13 14 17 20 23 21 21 22 23 24 24 25 25 23 22 27
4 6 2 8 5 2 6 7 11 16 15 19 25 28 25 14 11 5 5 3 1 4 9 12 14 14 12 11 10 9 8 6 4 4 4 6 7 11 13 14 14 15 15 17 19 18 19 25 26
5 14 5 6 6 5 7 5 7 16 15 20 27 30 24 16 9 10 6 4 4 5 8 11 13 13 13 13 11 9 6 4 4 4 4 5 5 6 8 11 12 14 16 19 19 21 25 27 27
5 2 8 7 2 1 4 2 7 17 14 13 21 33 28 19 12 9 9 7 8 9 9 10 12 13 13 12 10 8 5 2 2 4 6 7 7 8 9 11 13 16 18 20 22 24 25 22 21
3 7 9 5 5 4 5 8 9 16 13 12 22 31 33 29 21 15 13 11 12 11 12 14 14 14 13 11 9 6 4 1 1 4 6 7 8 9 10 11 13 15 17 17 17 16 16 15 16
Wind_Direction_500mb
315 354 65 212 255 223 245 251 246 201 98 81 69 60 43 36 41 131 141 152 182 164 157 154 149 147 149 142 145 152 157 162 164 159 138 125 117 115 111 109 104 100 94 92 94 87 75 72 72
316 227 247 256 241 249 257 221 243 166 109 120 99 41 341 96 79 130 152 157 176 160 155 155 153 149 151 155 158 160 162 168 164 155 141 122 125 120 108 103 100 97 94 83 75 78 74 68 64
295 196 269 207 241 248 193 299 184 94 121 136 129 306 35 85 110 140 156 158 172 162 158 157 158 155 152 155 157 159 163 165 156 154 146 134 123 115 110 94 100 92 82 78 72 65 58 52 45
267 224 256 253 261 238 257 210 107 113 138 157 140 119 89 77 134 156 152 157 158 162 162 161 160 160 156 162 165 173 171 163 158 151 158 115 112 117 103 118 107 94 79 65 56 51 44 35 25
251 259 240 233 244 265 48 51 132 141 154 188 185 144 100 106 139 167 146 161 160 156 167 165 164 161 161 168 174 182 177 173 167 167 171 152 147 133 135 127 106 107 83 53 30 12 1 351 349
248 231 245 231 247 241 142 146 254 163 177 174 180 122 107 145 151 147 153 160 159 167 172 168 170 169 170 175 186 182 184 190 191 187 180 155 171 180 171 222 327 9 13 341 324 329 335 337 332
235 252 244 246 253 266 125 144 218 198 162 145 140 196 142 149 153 148 157 159 156 174 178 174 175 176 179 186 189 186 194 205 197 195 195 182 177 197 217 234 265 294 307 311 312 314 316 318 323
233 245 260 253 261 231 284 153 196 226 150 154 173 108 159 166 153 154 156 163 163 172 174 172 180 183 187 189 192 195 200 206 207 202 200 198 196 205 224 237 257 282 298 300 301 305 310 317 322
225 235 236 244 252 258 154 159 175 133 119 132 146 64 140 164 152 159 162 163 172 168 178 182 180 193 193 193 196 199 204 199 197 200 194 199 204 204 256 247 261 278 288 289 296 302 307 312 317
200 215 235 245 248 252 160 180 163 152 157 159 117 125 159 158 160 166 170 170 177 173 171 195 188 181 184 190 198 205 214 216 212 207 209 211 204 264 279 275 274 275 279 285 293 297 302 307 308
202 226 256 260 324 4 163 192 163 196 194 187 171 165 174 162 168 170 175 178 186 182 177 198 191 178 187 201 200 219 213 216 222 224 228 210 191 233 248 261 268 271 277 281 290 296 301 306 317
165 266 276 300 27 12 336 197 164 196 119 209 179 188 190 171 176 175 179 183 188 192 193 204 197 186 184 188 203 205 205 216 224 230 237 231 233 238 254 261 272 284 290 290 296 300 301 305 305
172 184 301 269 302 246 354 316 191 209 154 121 141 170 188 179 179 180 179 189 191 198 206 209 202 202 200 206 213 216 212 225 233 230 237 239 244 248 254 259 265 272 282 290 293 297 302 306 307
198 208 251 287 236 182 188 207 68 233 158 139 153 168 184 187 181 181 178 190 195 200 203 215 207 209 208 209 216 216 214 229 236 235 241 248 250 253 255 256 261 270 276 282 290 297 299 299 292
86 180 283 292 244 206 197 163 213 245 169 157 172 170 177 189 188 187 177 192 201 202 206 212 213 212 214 212 213 216 226 230 238 245 248 251 253 256 257 259 264 270 273 279 282 289 292 296 300
217 296 185 282 219 206 229 208 209 191 157 179 180 178 175 187 198 194 179 193 203 202 205 212 216 216 218 222 224 226 233 241 245 251 253 256 260 259 257 259 262 265 267 271 281 286 286 284 294
179 203 207 144 215 173 212 204 95 149 175 204 184 175 177 181 191 201 186 192 202 203 204 208 216 222 222 226 232 235 241 245 251 252 255 258 262 263 261 260 261 262 266 271 279 281 281 286 296
340 249 180 237 354 291 211 244 121 141 186 222 202 176 174 188 190 194 189 196 197 204 209 214 220 223 225 230 234 240 246 249 249 253 258 262 263 264 263 264 264 263 265 269 266 275 280 284 287
334 323 306 53 318 302 241 247 208 161 165 264 242 193 175 189 192 191 189 192 194 201 200 213 221 228 227 229 235 238 238 245 254 257 262 262 262 264 265 268 266 263 264 266 266 267 266 277 304
360 353 3 183 301 286 339 246 278 205 177 185 243 201 188 180 184 187 197 201 200 201 207 208 214 226 235 237 243 248 250 253 259 262 262 261 260 262 263 267 267 265 259 259 268 258 264 280 305
67 46 312 340 265 179 292 265 212 239 244 176 219 247 149 178 191 206 207 208 212 212 213 215 214 220 221 233 231 238 237 248 251 253 255 265 267 263 262 265 267 265 261 261 260 260 271 282 301
104 13 356 359 341 71 287 269 72 187 140 181 224 220 246 239 205 151 213 222 227 226 226 227 227 228 230 231 230 236 244 249 258 270 271 263 267 265 261 258 260 261 262 254 260 259 269 271 283
102 300 4 345 344 360 70 54 289 10 75 41 41 42 20 216 187 201 223 221 227 240 238 235 231 233 234 235 238 239 242 248 252 247 246 259 261 258 261 260 261 258 257 255 258 263 269 272 275
189 176 98 21 352 357 284 171 340 66 18 49 67 53 29 3 310 242 230 226 229 237 241 238 236 235 233 232 233 237 244 249 256 262 263 267 271 268 267 264 254 255 255 259 262 265 262 265 269
256 139 61 80 97 228 9 21 280 72 49 30 344 347 0 349 347 341 270 236 239 242 242 237 239 237 235 238 242 248 255 261 265 268 270 267 268 263 264 265 260 261 260 260 261 264 266 265 278
218 168 139 73 47 347 305 218 240 88 65 37 22 356 351 7 18 19 13 303 266 240 230 228 234 237 239 243 248 249 248 250 253 260 266 266 266 266 271 268 268 267 265 263 262 267 273 270 261
165 106 104 117 125 21 238 235 310 96 67 49 35 17 15 16 9 10 3 342 298 201 196 202 207 205 199 190 185 185 193 203 216 246 274 291 279 267 265 268 267 265 259 257 260 267 267 259 263
15 163 90 5 128 215 254 199 216 66 36 34 22 19 19 10 350 336 334 301 262 223 200 192 181 174 173 176 177 180 190 212 244 265 280 289 294 279 268 263 261 258 257 260 270 264 263 265 262
155 200 50 114 99 231 5 93 16 85 70 42 21 18 11 9 357 326 302 287 249 227 210 201 194 183 180 177 170 163 159 176 295 313 313 311 300 292 283 280 275 270 272 273 272 272 273 269 264
360 350 153 158 190 260 82 292 101 119 125 74 37 14 2 2 347 327 306 281 262 247 220 203 196 183 176 166 159 154 147 143 318 325 320 311 305 297 288 285 284 285 286 287 285 285 279 273 269
Wind_Speed_850mb
18 8 10 3 5 8 18 30 20 16 6 12 7 12 4 38 4 10 39 24 37 40 42 43 42 35 37 35 32 27 23 18 13 6 3 5 10 13 15 15 16 16 16 17 17 17 21 21 21
13 4 10 9 8 17 17 24 24 13 16 16 21 4 3 11 16 34 38 38 37 41 46 44 44 37 35 34 28 24 20 15 10 6 6 10 14 15 17 16 15 15 15 14 16 16 15 16 17
12 10 14 8 14 24 3 19 17 32 28 27 12 2 4 12 18 41 28 50 42 40 47 45 44 36 32 31 27 23 17 12 9 8 8 10 13 14 17 14 13 12 13 13 13 13 12 12 12
8 11 15 10 25 31 27 6 36 21 17 25 22 16 15 20 19 25 50 52 42 38 42 42 44 35 33 30 25 20 14 10 9 8 7 8 13 12 5 6 11 10 9 9 9 9 9 9 8
15 16 14 17 29 36 5 13 33 17 19 20 14 17 15 16 24 27 59 51 47 42 40 42 42 38 31 27 25 18 12 9 8 7 7 8 7 13 15 6 11 8 5 4 4 5 7 8 10
18 18 13 23 31 33 12 20 13 24 31 30 14 21 14 22 26 46 54 47 44 45 40 45 42 38 32 26 23 18 12 10 9 8 7 8 7 5 5 2 3 3 2 3 4 7 10 12 14
24 14 22 29 30 9 8 20 17 20 22 24 6 6 21 29 35 49 48 44 44 41 39 50 46 41 35 27 19 16 14 11 12 11 9 8 9 7 7 6 6 6 7 9 10 11 13 14 15
27 9 26 30 26 13 12 21 20 20 18 15 19 4 15 48 45 50 46 42 43 40 34 44 45 41 36 30 24 20 15 11 13 14 12 9 9 8 9 9 8 7 9 12 13 14 15 16 18
20 10 25 33 33 15 41 15 11 6 24 11 13 12 18 32 59 50 49 45 44 43 32 37 37 39 35 32 27 24 18 12 13 14 13 11 8 8 6 8 7 8 10 13 14 14 16 18 19
13 11 22 27 28 15 26 25 27 9 18 15 21 21 29 31 60 57 56 53 48 48 46 32 41 33 30 30 26 25 20 16 13 15 14 10 8 4 16 10 9 12 14 15 16 16 18 19 18
7 10 17 42 9 20 22 23 37 18 16 26 40 35 32 38 49 57 50 50 47 46 48 49 47 47 37 28 28 26 26 18 16 14 14 13 10 23 26 23 19 17 17 16 18 17 18 20 22
10 20 41 23 11 9 11 20 20 29 9 26 39 44 37 43 53 57 48 46 45 43 47 46 43 47 44 32 31 28 28 19 20 21 20 21 23 25 23 19 18 19 19 19 19 20 21 23 25
9 12 42 22 7 1 7 12 12 20 14 22 25 47 35 40 51 54 45 42 43 42 40 41 39 41 44 43 30 26 19 24 24 23 25 25 24 22 21 20 20 21 21 21 21 21 21 24 28
27 14 38 39 15 11 9 9 7 15 27 25 30 34 32 35 51 54 47 44 46 43 42 36 38 38 39 43 38 29 31 31 28 29 28 27 27 25 23 23 24 24 23 22 22 23 24 27 27
2 15 14 28 16 9 15 8 12 20 30 27 28 34 31 32 42 58 55 46 44 44 41 42 39 37 36 35 36 35 33 34 34 30 30 31 30 28 29 28 28 26 23 23 24 25 29 29 31
6 4 14 24 19 7 10 11 23 24 25 29 29 34 35 36 37 40 54 50 46 45 46 43 41 41 39 36 36 37 38 36 34 33 31 32 34 32 31 32 31 27 26 27 28 27 27 28 30
10 11 11 8 9 7 14 6 13 29 25 27 33 35 31 34 37 32 43 46 42 42 42 43 44 44 41 40 37 35 36 35 33 32 33 32 32 31 33 34 31 29 30 32 30 28 27 28 32
9 19 8 6 3 8 13 9 10 13 12 18 27 32 33 33 38 35 35 40 41 38 36 37 39 39 38 37 37 36 36 37 36 37 37 34 34 34 36 35 35 35 36 36 31 31 28 31 32
17 17 12 1 10 9 13 12 12 23 14 7 15 20 29 28 33 33 38 39 40 38 41 36 35 34 36 39 40 39 41 39 40 40 38 37 38 37 38 37 37 37 39 33 33 27 29 33 35
16 18 5 5 5 5 13 10 9 6 12 16 15 11 22 19 24 33 34 36 42 42 40 40 38 37 38 39 40 40 39 41 42 38 37 37 38 37 39 38 38 37 34 37 38 33 35 36 34
10 9 14 8 5 1 8 9 11 13 14 19 14 12 5 23 32 30 37 42 42 45 43 45 42 42 41 40 39 37 37 40 37 34 35 36 35 37 39 40 40 39 37 40 39 34 36 34 35
5 10 22 26 14 3 4 3 8 3 10 3 13 16 15 11 12 13 21 26 32 39 46 44 47 49 47 50 49 49 43 41 34 25 26 28 33 35 38 42 44 43 41 43 40 36 35 30 34
5 12 13 22 14 10 2 6 7 8 11 15 21 18 8 1 12 21 21 19 29 36 34 34 36 39 39 41 42 42 42 40 39 38 38 41 38 30 27 28 32 37 39 38 36 35 30 29 31
15 10 9 8 9 6 8 1 8 6 3 5 10 12 12 12 7 18 33 30 38 39 34 32 33 31 29 29 29 30 31 32 34 35 37 37 36 35 37 35 36 38 38 37 35 32 27 31 30
8 9 3 2 3 4 8 7 10 11 10 7 11 13 13 14 9 8 6 19 32 35 35 32 30 27 27 28 29 29 30 32 32 33 32 32 29 29 31 28 29 30 30 32 31 31 30 24 26
11 9 5 3 3 5 6 8 2 12 18 19 21 22 13 8 9 8 5 3 6 12 16 19 22 23 24 23 21 19 18 16 14 13 14 17 20 23 21 21 22 23 24 24 25 25 23 22 27
4 6 2 8 5 2 6 7 11 16 15 19 25 28 25 14 11 5 5 3 1 4 9 12 14 14 12 11 10 9 8 6 4 4 4 6 7 11 13 14 14 15 15 17 19 18 19 25 26
5 14 5 6 6 5 7 5 7 16 15 20 27 30 24 16 9 10 6 4 4 5 8 11 13 13 13 13 11 9 6 4 4 4 4 5 5 6 8 11 12 14 16 19 19 21 25 27 27
5 2 8 7 2 1 4 2 7 17 14 13 21 33 28 19 12 9 9 7 8 9 9 10 12 13 13 12 10 8 5 2 2 4 6 7 7 8 9 11 13 16 18 20 22 24 25 22 21
3 7 9 5 5 4 5 8 9 16 13 12 22 31 33 29 21 15 13 11 12 11 12 14 14 14 13 11 9 6 4 1 1 4 6 7 8 9 10 11 13 15 17 17 17 16 16 15 16
Wind_Direction_850mb
315 354 65 212 255 223 245 251 246 201 98 81 69 60 43 36 41 131 141 152 182 164 157 154 149 147 149 142 145 152 157 162 164 159 138 125 117 115 111 109 104 100 94 92 94 87 75 72 72
316 227 247 256 241 249 257 221 243 166 109 120 99 41 341 96 79 130 152 157 176 160 155 155 153 149 151 155 158 160 162 168 164 155 141 122 125 120 108 103 100 97 94 83 75 78 74 68 64
295 196 269 207 241 248 193 299 184 94 121 136 129 306 35 85 110 140 156 158 172 162 158 157 158 155 152 155 157 159 163 165 156 154 146 134 123 115 110 94 100 92 82 78 72 65 58 52 45
267 224 256 253 261 238 257 210 107 113 138 157 140 119 89 77 134 156 152 157 158 162 162 161 160 160 156 162 165 173 171 163 158 151 158 115 112 117 103 118 107 94 79 65 56 51 44 35 25
251 259 240 233 244 265 48 51 132 141 154 188 185 144 100 106 139 167 146 161 160 156 167 165 164 161 161 168 174 182 177 173 167 167 171 152 147 133 135 127 106 107 83 53 30 12 1 351 349
248 231 245 231 247 241 142 146 254 163 177 174 180 122 107 145 151 147 153 160 159 167 172 168 170 169 170 175 186 182 184 190 191 187 180 155 171 180 171 222 327 9 13 341 324 329 335 337 332
235 252 244 246 253 266 125 144 218 198 162 145 140 196 142 149 153 148 157 159 156 174 178 174 175 176 179 186 189 186 194 205 197 195 195 182 177 197 217 234 265 294 307 311 312 314 316 318 323
233 245 260 253 261 231 284 153 196 226 150 154 173 108 159 166 153 154 156 163 163 172 174 172 180 183 187 189 192 195 200 206 207 202 200 198 196 205 224 237 257 282 298 300 301 305 310 317 322
225 235 236 244 252 258 154 159 175 133 119 132 146 64 140 164 152 159 162 163 172 168 178 182 180 193 193 193 196 199 204 199 197 200 194 199 204 204 256 247 261 278 288 289 296 302 307 312 317
200 215 235 245 248 252 160 180 163 152 157 159 117 125 159 158 160 166 170 170 177 173 171 195 188 181 184 190 198 205 214 216 212 207 209 211 204 264 279 275 274 275 279 285 293 297 302 307 308
202 226 256 260 324 4 163 192 163 196 194 187 171 165 174 162 168 170 175 178 186 182 177 198 191 178 187 201 200 219 213 216 222 224 228 210 191 233 248 261 268 271 277 281 290 296 301 306 317
165 266 276 300 27 12 336 197 164 196 119 209 179 188 190 171 176 175 179 183 188 192 193 204 197 186 184 188 203 205 205 216 224 230 237 231 233 238 254 261 272 284 290 290 296 300 301 305 305
172 184 301 269 302 246 354 316 191 209 154 121 141 170 188 179 179 180 179 189 191 198 206 209 202 202 200 206 213 216 212 225 233 230 237 239 244 248 254 259 265 272 282 290 293 297 302 306 307
198 208 251 287 236 182 188 207 68 233 158 139 153 168 184 187 181 181 178 190 195 200 203 215 207 209 208 209 216 216 214 229 236 235 241 248 250 253 255 256 261 270 276 282 290 297 299 299 292
86 180 283 292 244 206 197 163 213 245 169 157 172 170 177 189 188 187 177 192 201 202 206 212 213 212 214 212 213 216 226 230 238 245 248 251 253 256 257 259 264 270 273 279 282 289 292 296 300
217 296 185 282 219 206 229 208 209 191 157 179 180 178 175 187 198 194 179 193 203 202 205 212 216 216 218 222 224 226 233 241 245 251 253 256 260 259 257 259 262 265 267 271 281 286 286 284 294
179 203 207 144 215 173 212 204 95 149 175 204 184 175 177 181 191 201 186 192 202 203 204 208 216 222 222 226 232 235 241 245 251 252 255 258 262 263 261 260 261 262 266 271 279 281 281 286 296
340 249 180 237 354 291 211 244 121 141 186 222 202 176 174 188 190 194 189 196 197 204 209 214 220 223 225 230 234 240 246 249 249 253 258 262 263 264 263 264 264 263 265 269 266 275 280 284 287
334 323 306 53 318 302 241 247 208 161 165 264 242 193 175 189 192 191 189 192 194 201 200 213 221 228 227 229 235 238 238 245 254 257 262 262 262 264 265 268 266 263 264 266 266 267 266 277 304
360 353 3 183 301 286 339 246 278 205 177 185 243 201 188 180 184 187 197 201 200 201 207 208 214 226 235 237 243 248 250 253 259 262 262 261 260 262 263 267 267 265 259 259 268 258 264 280 305
67 46 312 340 265 179 292 265 212 239 244 176 219 247 149 178 191 206 207 208 212 212 213 215 214 220 221 233 231 238 237 248 251 253 255 265 267 263 262 265 267 265 261 261 260 260 271 282 301
104 13 356 359 341 71 287 269 72 187 140 181 224 220 246 239 205 151 213 222 227 226 226 227 227 228 230 231 230 236 244 249 258 270 271 263 267 265 261 258 260 261 262 254 260 259 269 271 283
102 300 4 345 344 360 70 54 289 10 75 41 41 42 20 216 187 201 223 221 227 240 238 235 231 233 234 235 238 239 242 248 252 247 246 259 261 258 261 260 261 258 257 255 258 263 269 272 275
189 176 98 21 352 357 284 171 340 66 18 49 67 53 29 3 310 242 230 226 229 237 241 238 236 235 233 232 233 237 244 249 256 262 263 267 271 268 267 264 254 255 255 259 262 265 262 265 269
256 139 61 80 97 228 9 21 280 72 49 30 344 347 0 349 347 341 270 236 239 242 242 237 239 237 235 238 242 248 255 261 265 268 270 267 268 263 264 265 260 261 260 260 261 264 266 265 278
218 168 139 73 47 347 305 218 240 88 65 37 22 356 351 7 18 19 13 303 266 240 230 228 234 237 239 243 248 249 248 250 253 260 266 266 266 266 271 268 268 267 265 263 262 267 273 270 261
165 106 104 117 125 21 238 235 310 96 67 49 35 17 15 16 9 10 3 342 298 201 196 202 207 205 199 190 185 185 193 203 216 246 274 291 279 267 265 268 267 265 259 257 260 267 267 259 263
15 163 90 5 128 215 254 199 216 66 36 34 22 19 19 10 350 336 334 301 262 223 200 192 181 174 173 176 177 180 190 212 244 265 280 289 294 279 268 263 261 258 257 260 270 264 263 265 262
155 200 50 114 99 231 5 93 16 85 70 42 21 18 11 9 357 326 302 287 249 227 210 201 194 183 180 177 170 163 159 176 295 313 313 311 300 292 283 280 275 270 272 273 272 272 273 269 264
360 350 153 158 190 260 82 292 101 119 125 74 37 14 2 2 347 327 306 281 262 247 220 203 196 183 176 166 159 154 147 143 318 325 320 311 305 297 288 285 284 285 286 287 285 285 279 273 269